1503486000.85,2967,16.25,73872.3,12.95,-14.37,-20.99,0,*7B
1503486002.11,2968,16.25,73872.0,13.01,-14.05,-20.69,0,*76
1503486003.37,2969,16.25,73874.8,13.01,-14.37,-20.83,0,*72
1503486004.63,2970,16.25,73874.3,13.01,-14.23,-20.83,0,*7F
1503486005.9,2971,16.25,73876.3,13.05,-14.01,-20.59,0,*7D
1503486007.13,2972,16.25,73872.8,13.05,-13.55,-20.09,0,*7D
1503486008.42,2973,16.25,73878.5,13.09,-14.05,-20.35,0,*7D
1503486009.7,2974,16.25,73874.8,13.09,-13.79,-19.57,0,*78
1503486010.92,2975,16.25,73872.0,13.11,-13.93,-19.23,0,*77
1503486012.14,2976,16.25,73872.0,13.13,-13.73,-18.79,0,*76
1503486013.37,2977,16.25,73874.8,13.11,-13.47,-18.31,0,*7E
1503486014.59,2978,16.25,73876.0,13.11,-12.79,-17.69,0,*7F
1503486015.85,2979,16.25,73870.5,13.13,-12.29,-17.25,0,*71
1503486017.05,2980,16.25,73868.8,13.11,-12.29,-17.73,0,*76
1503486018.3,2981,16.25,73874.5,13.11,-11.63,-17.55,0,*7E
1503486019.55,2982,16.25,73872.3,13.09,-11.51,-18.17,0,*7C
1503486020.77,2983,16.25,73874.0,13.05,-10.89,-18.25,0,*74
1503486021.96,2984,16.25,73876.0,13.03,-10.35,-18.25,0,*72
1503486023.2,2985,16.25,73876.3,12.99,-8.89,-16.69,0,*49
1503486024.45,2986,16.25,73872.8,12.99,-7.05,-14.51,0,*48
1503486025.66,2987,16.25,73874.3,12.95,-6.13,-13.01,0,*41
1503486026.87,2988,16.25,73872.8,12.95,-4.93,-11.45,0,*46
1503486028.12,2989,16.25,73874.5,12.91,-4.41,-10.67,0,*4D
1503486029.37,2990,16.25,73872.8,12.87,-4.41,-10.67,0,*42
1503486030.59,2991,16.25,73872.5,12.87,-4.05,-10.57,0,*40
1503486031.84,2992,16.25,73870.8,12.87,-3.91,-11.51,0,*4E
1503486033.05,2993,16.25,73872.0,12.81,-5.07,-14.11,0,*41
1503486034.28,2994,16.25,73876.8,12.81,-5.31,-15.07,0,*45
1503486035.49,2995,16.25,73874.5,12.77,-4.93,-14.65,0,*41
1503486036.68,2996,16.25,73872.5,12.73,-4.37,-14.69,0,*44
1503486037.89,2997,16.25,73876.8,12.73,-4.89,-16.45,0,*4C
1503486039.13,2998,16.25,73874.3,12.67,-4.69,-15.99,0,*4A
1503486040.39,2999,16.25,73872.8,12.63,-3.79,-14.75,0,*4A
1503486041.64,3000,16.25,73872.3,12.63,-3.79,-14.83,0,*4B
1503486042.89,3001,16.25,73874.8,12.63,-4.13,-15.57,0,*49
1503486044.09,3002,16.25,73872.8,12.61,-4.33,-16.03,0,*48
1503486045.3,3003,16.25,73872.5,12.59,-4.53,-15.89,0,*45
1503486046.52,3004,16.25,73876.3,12.59,-4.61,-15.57,0,*40
1503486047.74,3005,16.25,73872.8,12.59,-4.29,-14.51,0,*4A
1503486048.96,3006,16.25,73872.3,12.55,-3.67,-13.19,0,*43
1503486050.2,3007,16.25,73872.8,12.55,-3.43,-11.81,0,*47
1503486051.4,3008,16.25,73872.8,12.55,-3.31,-11.11,0,*44
1503486052.6,3009,16.25,73874.0,12.55,-3.03,-10.15,0,*41
1503486053.77,3010,16.25,73870.0,12.55,-2.79,-9.31,0,*7B
1503486054.95,3011,16.25,73868.3,12.55,-2.39,-8.41,0,*78
1503486056.17,3012,16.25,73874.3,12.55,-2.31,-8.07,0,*71
1503486057.36,3013,16.25,73872.8,12.55,-2.39,-7.83,0,*7B
1503486058.6,3014,16.25,73874.8,12.55,-2.63,-7.73,0,*7C
1503486059.83,3015,16.25,73874.8,12.53,-2.43,-7.27,0,*78
1503486061.07,3016,16.25,73872.0,12.53,-1.91,-6.47,0,*70
1503486062.28,3017,16.25,73872.5,12.51,-1.95,-6.43,0,*73
1503486063.52,3018,16.25,73872.8,12.51,-2.03,-6.27,0,*72
1503486064.74,3019,16.25,73870.5,12.49,-1.71,-5.97,0,*74
1503486065.98,3020,16.25,73870.3,12.45,-1.59,-5.65,0,*75
1503486067.22,3021,16.25,73878.5,12.45,-0.81,-4.81,0,*4B
1503486068.49,3022,16.25,73870.5,12.49,-1.01,-5.11,0,*75
1503486069.74,3023,16.25,73872.3,12.49,-1.47,-5.43,0,*71
1503486071.0,3024,16.25,73870.8,12.45,-0.93,-4.85,0,*49
1503486072.27,3025,16.25,73874.0,12.49,-0.89,-5.23,0,*42
1503486073.48,3026,16.25,73874.5,12.45,-0.77,-5.47,0,*4E
1503486074.72,3027,16.25,73874.3,12.45,-0.73,-5.31,0,*4A
1503486075.97,3028,16.25,73876.5,12.45,-1.05,-5.47,0,*74
1503486077.21,3029,16.25,73874.8,12.45,-1.01,-5.47,0,*71
1503486078.49,3030,16.25,73874.3,12.45,-1.13,-5.61,0,*7E
1503486079.7,3031,16.25,73874.0,12.43,-0.41,-5.11,0,*48
1503486080.91,3032,16.25,73874.5,12.43,-0.19,-4.81,0,*4E
1503486082.12,3033,16.25,73876.0,12.43,-0.29,-5.19,0,*4C
1503486083.32,3034,16.25,73872.0,12.43,-0.07,-5.31,0,*7D
1503486084.54,3035,16.25,73878.3,12.43,-0.19,-5.85,0,*4C
1503486085.73,3036,16.25,73874.0,12.43,0.67,-4.99,0,*67
1503486086.99,3037,16.25,73874.3,12.49,0.83,-5.19,0,*6F
1503486088.21,3038,16.25,73874.8,12.49,0.63,-5.97,0,*68
1503486089.42,3039,16.25,73872.0,12.49,-0.61,-8.37,0,*41
1503486090.63,3040,16.25,73872.8,12.49,-0.03,-8.25,0,*78
1503486091.86,3041,16.25,73874.8,12.53,-0.57,-9.15,0,*41
1503486093.06,3042,16.25,73876.0,12.51,-0.23,-8.33,0,*46
1503486094.28,3043,16.25,73876.3,12.53,0.09,-7.27,0,*5A
1503486095.48,3044,16.25,73874.8,12.51,0.29,-6.47,0,*6A
1503486096.68,3045,16.25,73872.8,12.53,0.09,-6.69,0,*57
1503486097.91,3046,16.25,73878.0,12.53,-0.19,-6.97,0,*49
1503486099.11,3047,16.25,73874.8,12.53,0.09,-6.31,0,*58
1503486100.33,3048,16.25,73876.0,12.55,0.13,-5.85,0,*66
1503486101.51,3049,16.25,73878.5,12.55,-0.49,-6.13,0,*49
1503486102.69,3050,16.25,73878.5,12.55,-0.41,-6.01,0,*4A
1503486103.9,3051,16.25,73876.3,12.55,-1.01,-6.09,0,*76
1503486105.13,3052,16.25,73872.0,12.55,-0.89,-5.65,0,*4D
1503486106.37,3053,16.25,73878.5,12.53,-0.65,-5.15,0,*4F
1503486107.61,3054,16.25,73876.0,12.53,-1.05,-5.47,0,*78
1503486108.82,3055,16.25,73876.3,12.51,-0.41,-4.73,0,*4C
1503486110.03,3056,16.25,73874.5,12.49,-0.33,-4.41,0,*42
1503486111.27,3057,16.25,73878.0,12.45,-0.41,-4.85,0,*42
1503486112.51,3058,16.25,73878.0,12.49,-0.33,-5.15,0,*4C
1503486113.72,3059,16.25,73874.5,12.45,-0.81,-6.01,0,*4E
1503486114.97,3060,16.25,73878.0,12.45,-1.05,-6.55,0,*78
1503486116.18,3061,16.25,73876.3,12.41,-0.65,-6.55,0,*4A
1503486117.39,3062,16.25,73878.0,12.41,-0.33,-6.59,0,*46
1503486118.62,3063,16.25,73876.5,12.41,-0.45,-7.05,0,*4E
1503486119.86,3064,16.25,73878.8,12.41,-1.29,-8.03,0,*7B
1503486121.1,3065,16.25,73876.5,12.37,-1.47,-8.33,0,*70
1503486122.33,3066,16.25,73878.5,12.37,-1.43,-8.63,0,*72
1503486123.6,3067,16.25,73876.0,12.33,-1.43,-9.11,0,*73
1503486124.83,3068,16.25,73876.8,12.31,-0.89,-8.81,0,*41
1503486126.05,3069,16.25,73878.3,12.33,-1.55,-9.93,0,*70
1503486127.29,3070,16.25,73880.0,12.31,-2.07,-10.71,0,*4A
1503486128.54,3071,16.25,73876.3,12.31,-2.55,-11.55,0,*4B
1503486129.81,3072,16.25,73878.5,12.29,-1.99,-10.79,0,*4D
1503486131.06,3073,16.25,73876.3,12.27,-2.47,-11.73,0,*49
1503486132.29,3074,16.25,73876.8,12.27,-2.63,-12.21,0,*4C
1503486133.55,3075,16.25,73874.5,12.21,-3.71,-14.43,0,*4B
1503486134.76,3076,16.25,73876.8,12.19,-3.39,-15.25,0,*4E
1503486135.98,3077,16.25,73878.3,12.19,-4.49,-17.97,0,*44
1503486137.21,3078,16.25,73878.3,12.15,-5.43,-19.57,0,*4E
1503486138.43,3079,16.25,73876.8,12.11,-5.19,-20.09,0,*45
1503486139.62,3080,16.25,73878.5,12.07,-6.09,-22.27,0,*48
1503486140.81,3081,16.25,73876.5,12.07,-7.23,-23.89,0,*45
1503486142.06,3082,16.25,73876.3,12.01,-8.75,-25.45,0,*4A
1503486143.28,3083,16.25,73876.3,11.95,-8.37,-24.31,0,*41
1503486144.47,3084,16.25,73878.8,11.93,-7.83,-23.79,0,*4B
1503486145.66,3085,16.25,73878.3,11.89,-8.17,-24.35,0,*4C
1503486146.9,3086,16.25,73876.8,11.85,-7.95,-24.25,0,*47
1503486148.17,3087,16.25,73878.3,11.79,-7.69,-23.53,0,*40
1503486149.44,3088,16.25,73876.0,11.79,-6.63,-21.27,0,*45
1503486150.66,3089,16.25,73878.5,11.75,-6.39,-20.05,0,*46
1503486151.92,3090,16.25,73876.0,11.73,-5.85,-19.57,0,*41
1503486153.17,3091,16.25,73878.0,11.75,-5.89,-20.05,0,*47
1503486154.37,3092,16.25,73876.8,11.73,-6.09,-20.73,0,*48
1503486155.65,3093,16.25,73880.0,11.71,-6.63,-22.17,0,*47
1503486156.9,3094,16.25,73876.3,11.71,-7.05,-22.97,0,*49
1503486158.1,3095,16.25,73876.8,11.69,-6.77,-22.53,0,*4D
1503486159.3,3096,16.25,73876.8,11.73,-6.77,-22.63,0,*46
1503486160.53,3097,16.25,73878.3,11.73,-6.47,-21.83,0,*49
1503486161.75,3098,16.25,73874.8,11.75,-6.81,-22.11,0,*42
1503486162.99,3099,16.25,73878.8,11.75,-6.27,-21.39,0,*46
1503486164.24,3100,16.25,73876.3,11.75,-5.93,-21.13,0,*43
1503486165.47,3101,16.25,73878.0,11.79,-6.09,-21.43,0,*4B
1503486166.71,3102,16.25,73876.0,11.79,-5.77,-21.09,0,*4C
1503486167.94,3103,16.25,73878.0,11.79,-6.43,-21.63,0,*45
1503486169.18,3104,16.25,73876.3,11.81,-6.23,-21.27,0,*43
1503486170.4,3105,16.25,73878.8,11.79,-6.89,-21.63,0,*45
1503486171.63,3106,16.25,73878.0,11.85,-6.23,-20.63,0,*44
1503486172.85,3107,16.25,73878.5,11.81,-6.43,-20.79,0,*4C
1503486174.12,3108,16.25,73878.0,11.87,-6.19,-20.15,0,*40
1503486175.37,3109,16.25,73878.5,11.85,-7.31,-21.23,0,*4C
1503486176.58,3110,16.25,73876.5,11.85,-7.69,-21.39,0,*42
1503486177.78,3111,16.25,73876.3,11.85,-6.35,-19.51,0,*4E
1503486179.0,3112,16.25,73878.8,11.85,-6.31,-19.65,0,*4E
1503486180.25,3113,16.25,73876.8,11.87,-5.27,-18.17,0,*4D
1503486181.51,3114,16.25,73876.0,11.87,-5.11,-17.63,0,*43
1503486182.75,3115,16.25,73878.5,11.89,-5.23,-17.93,0,*42
1503486183.99,3116,16.25,73880.5,11.91,-5.43,-19.41,0,*4F
1503486185.23,3117,16.25,73876.0,11.93,-5.19,-19.81,0,*4F
1503486186.49,3118,16.25,73876.0,11.95,-4.81,-19.65,0,*4C
1503486187.73,3119,16.25,73876.3,11.95,-4.93,-19.91,0,*45
1503486188.98,3120,16.25,73878.0,11.99,-5.19,-20.19,0,*4A
1503486190.23,3121,16.25,73880.0,12.01,-5.51,-20.79,0,*43
1503486191.44,3122,16.25,73876.8,12.05,-6.05,-21.39,0,*43
1503486192.66,3123,16.25,73878.0,12.07,-5.81,-21.09,0,*4C
1503486193.93,3124,16.25,73880.0,12.09,-5.93,-21.33,0,*4F
1503486195.15,3125,16.25,73876.3,12.13,-6.77,-22.27,0,*4A
1503486196.37,3126,16.25,73876.3,12.13,-7.19,-22.53,0,*43
1503486197.59,3127,16.25,73878.3,12.15,-7.39,-22.67,0,*41
1503486198.8,3128,16.25,73876.5,12.15,-7.69,-22.87,0,*45
1503486200.05,3129,16.25,73880.8,12.19,-8.11,-23.49,0,*4B
1503486201.29,3130,16.25,73882.0,12.21,-8.41,-23.69,0,*4F
1503486202.54,3131,16.25,73876.8,12.23,-8.07,-23.03,0,*42
1503486203.79,3132,16.25,73878.5,12.27,-7.65,-22.47,0,*4F
1503486205.04,3133,16.25,73882.5,12.33,-7.65,-22.27,0,*4D
1503486206.26,3134,16.25,73880.0,12.31,-8.25,-22.77,0,*46
1503486207.48,3135,16.25,73878.5,12.35,-7.95,-22.37,0,*43
1503486208.73,3136,16.25,73876.3,12.39,-7.57,-21.67,0,*44
1503486209.98,3137,16.25,73880.0,12.43,-8.07,-22.21,0,*43
1503486211.23,3138,16.25,73882.0,12.41,-8.97,-23.03,0,*46
1503486212.46,3139,16.25,73876.3,12.45,-8.89,-22.57,0,*4C
1503486213.7,3140,16.25,73880.0,12.49,-10.53,-24.41,0,*71
1503486214.93,3141,16.25,73876.8,12.51,-10.89,-24.67,0,*7A
1503486216.13,3142,16.25,73882.0,12.51,-10.31,-23.43,0,*7B
1503486217.36,3143,16.25,73880.3,12.53,-9.49,-22.41,0,*4C
1503486218.62,3144,16.25,73882.0,12.57,-9.37,-22.03,0,*40
1503486219.84,3145,16.25,73880.8,12.57,-10.15,-22.67,0,*7B
1503486221.06,3146,16.25,73880.8,12.61,-9.83,-22.11,0,*4B
1503486222.27,3147,16.25,73876.0,12.63,-9.93,-22.03,0,*4A
1503486223.47,3148,16.25,73876.5,12.65,-9.93,-21.73,0,*47
1503486224.68,3149,16.25,73878.0,12.69,-9.83,-21.39,0,*45
1503486225.9,3150,16.25,73878.8,12.69,-10.49,-21.83,0,*72
1503486227.16,3151,16.25,73880.3,12.75,-10.15,-21.27,0,*79
1503486228.4,3152,16.25,73878.8,12.75,-10.49,-21.57,0,*74
1503486229.61,3153,16.25,73880.3,12.79,-9.97,-20.93,0,*4B
1503486230.84,3154,16.25,73878.8,12.81,-10.15,-20.83,0,*78
1503486232.07,3155,16.25,73880.0,12.83,-10.19,-20.63,0,*79
1503486233.32,3156,16.25,73876.8,12.87,-9.45,-19.75,0,*42
1503486234.54,3157,16.25,73880.5,12.91,-7.83,-17.87,0,*43
1503486235.82,3158,16.25,73882.0,12.97,-7.35,-17.07,0,*4F
1503486237.1,3159,16.25,73878.8,13.01,-7.61,-17.11,0,*46
1503486238.31,3160,16.25,73880.8,13.07,-7.77,-17.31,0,*4F
1503486239.56,3161,16.25,73878.8,13.11,-7.95,-17.11,0,*47
1503486240.8,3162,16.25,73882.0,13.17,-6.97,-15.99,0,*43
1503486242.03,3163,16.25,73882.8,13.23,-7.15,-16.17,0,*4B
1503486243.29,3164,16.25,73876.3,13.27,-7.73,-16.51,0,*4A
1503486244.54,3165,16.25,73882.3,13.31,-7.27,-16.03,0,*4A
1503486245.8,3166,16.25,73874.8,13.35,-7.39,-15.89,0,*43
1503486247.01,3167,16.25,73876.3,13.43,-6.85,-14.89,0,*44
1503486248.21,3168,16.25,73878.5,13.49,-6.51,-14.23,0,*48
1503486249.44,3169,16.25,73882.3,13.53,-6.35,-13.97,0,*48
1503486250.68,3170,16.25,73876.5,13.57,-6.31,-13.83,0,*45
1503486251.93,3171,16.25,73878.0,13.65,-5.85,-13.07,0,*45
1503486253.18,3172,16.25,73878.8,13.71,-5.73,-12.71,0,*4A
1503486254.43,3173,16.25,73880.3,13.75,-5.03,-11.93,0,*47
1503486255.63,3174,16.25,73878.0,13.79,-4.57,-11.19,0,*4E
1503486256.89,3175,16.25,73882.3,13.85,-4.85,-11.29,0,*40
1503486258.15,3176,16.25,73876.5,13.89,-5.15,-11.63,0,*49
1503486259.37,3177,16.25,73876.3,13.93,-5.23,-11.15,0,*47
1503486260.56,3178,16.25,73878.3,13.93,-4.41,-9.89,0,*71
1503486261.81,3179,16.25,73878.0,13.95,-2.87,-8.07,0,*7D
1503486263.06,3180,16.25,73878.8,13.99,-1.91,-7.05,0,*7E
1503486264.3,3181,16.25,73876.5,14.05,-2.11,-6.97,0,*7C
1503486265.49,3182,16.25,73876.8,14.05,-2.15,-6.85,0,*78
1503486266.74,3183,16.25,73876.8,14.11,-1.43,-5.77,0,*72
1503486267.95,3184,16.25,73878.5,14.13,-1.55,-5.65,0,*73
1503486269.19,3185,16.25,73882.8,14.13,-1.01,-4.93,0,*7B
1503486270.42,3186,16.25,73880.8,14.15,-0.69,-4.81,0,*42
1503486271.62,3187,16.25,73882.0,14.15,-0.03,-4.09,0,*7F
1503486272.83,3188,16.25,73882.5,14.21,-0.33,-4.33,0,*4D
1503486274.04,3189,16.25,73880.0,14.19,-0.11,-4.25,0,*40
1503486275.25,3190,16.25,73876.8,14.21,-0.49,-4.53,0,*4F
1503486276.5,3191,16.25,73878.0,14.21,0.17,-3.47,0,*6A
1503486277.73,3192,16.25,73878.5,14.21,0.55,-2.87,0,*62
1503486278.94,3193,16.31,73880.0,14.23,1.41,-1.91,0,*51
1503486280.2,3194,16.25,73882.3,14.25,1.71,-1.47,0,*58
1503486281.43,3195,16.25,73876.5,14.27,1.71,-1.13,0,*5A
1503486282.64,3196,16.25,73876.5,14.27,2.01,-0.61,0,*69
1503486283.84,3197,16.25,73880.3,14.31,2.05,-0.49,0,*61
1503486285.05,3198,16.25,73878.3,14.33,1.75,-0.65,0,*66
1503486286.28,3199,16.25,73880.0,14.33,1.85,-0.45,0,*6A
1503486287.52,3200,16.25,73882.3,14.37,1.93,-0.37,0,*6F
1503486288.72,3201,16.25,73878.5,14.37,2.27,-0.03,0,*55
1503486289.93,3202,16.25,73880.3,14.37,2.31,0.09,0,*76
1503486291.16,3203,16.25,73878.3,14.37,2.39,-0.29,0,*60
1503486292.41,3204,16.25,73878.3,14.37,2.13,-0.93,0,*6E
1503486293.62,3205,16.31,73886.3,14.39,1.63,-1.59,0,*52
1503486294.86,3206,16.31,73882.3,14.39,1.09,-2.63,0,*57
1503486296.09,3207,16.25,73880.5,14.39,1.97,-1.95,0,*5B
1503486297.29,3208,16.31,73880.0,14.39,2.69,-1.59,0,*56
1503486298.55,3209,16.25,73876.3,14.41,2.21,-2.47,0,*58
1503486299.75,3210,16.25,73876.3,14.43,1.89,-2.83,0,*5B
1503486300.99,3211,16.25,73876.5,14.45,2.27,-2.51,0,*54
1503486302.22,3212,16.25,73876.8,14.45,2.77,-2.15,0,*52
1503486303.46,3213,16.25,73878.3,14.49,2.89,-1.95,0,*55
1503486304.7,3214,16.25,73882.3,14.55,2.59,-2.15,0,*59
1503486305.93,3215,16.31,73882.0,14.55,2.73,-1.79,0,*59
1503486307.14,3216,16.25,73878.8,14.55,2.35,-1.71,0,*50
1503486308.38,3217,16.25,73882.8,14.59,2.55,-1.21,0,*5E
1503486309.59,3218,16.25,73882.3,14.59,2.27,-1.21,0,*54
1503486310.82,3219,16.25,73876.5,14.59,2.27,-1.01,0,*57
1503486312.05,3220,16.25,73878.8,14.63,2.59,-0.53,0,*6B
1503486313.25,3221,16.25,73882.3,14.63,2.35,-0.57,0,*64
1503486314.48,3222,16.25,73882.5,14.65,2.13,-0.89,0,*66
1503486315.7,3223,16.25,73878.3,14.67,1.67,-1.25,0,*52
1503486316.87,3224,16.25,73880.5,14.65,2.35,-0.57,0,*67
1503486318.1,3225,16.25,73882.3,14.67,2.47,-0.53,0,*65
1503486319.33,3226,16.25,73882.0,14.71,2.69,-0.33,0,*6B
1503486320.55,3227,16.25,73882.8,14.71,2.69,-0.61,0,*6D
1503486321.78,3228,16.25,73876.5,14.75,3.07,-0.33,0,*68
1503486322.99,3229,16.25,73880.8,14.77,2.89,-0.69,0,*63
1503486324.19,3230,16.25,73878.8,14.79,2.31,-1.51,0,*5C
1503486325.42,3231,16.25,73882.3,14.81,1.89,-2.11,0,*5D
1503486326.66,3232,16.25,73878.3,14.81,1.67,-2.59,0,*52
1503486327.92,3233,16.25,73878.0,14.83,1.71,-2.71,0,*5C
1503486329.15,3234,16.25,73880.8,14.83,2.25,-2.35,0,*59
1503486330.39,3235,16.31,73882.8,14.85,1.85,-2.71,0,*57
1503486331.65,3236,16.25,73880.5,14.87,2.47,-1.87,0,*51
1503486332.86,3237,16.31,73882.5,14.93,2.81,-1.55,0,*50
1503486334.09,3238,16.31,73882.8,14.95,2.85,-1.51,0,*59
1503486335.35,3239,16.25,73880.0,14.99,1.89,-2.55,0,*5C
1503486336.56,3240,16.25,73880.8,15.01,1.17,-3.35,0,*52
1503486337.78,3241,16.25,73878.5,15.01,0.75,-3.63,0,*65
1503486338.99,3242,16.25,73882.8,15.05,1.51,-2.87,0,*5E
1503486340.21,3243,16.25,73880.0,15.07,1.43,-2.91,0,*59
1503486341.47,3244,16.25,73878.8,15.11,2.09,-2.07,0,*5B
1503486342.71,3245,16.25,73882.3,15.13,1.93,-1.99,0,*5C
1503486343.96,3246,16.31,73882.0,15.15,1.89,-2.03,0,*52
1503486345.22,3247,16.25,73880.0,15.21,1.43,-2.55,0,*51
1503486346.5,3248,16.31,73880.8,15.21,1.09,-2.75,0,*52
1503486347.73,3249,16.25,73880.5,15.25,1.47,-2.19,0,*57
1503486348.97,3250,16.31,73882.8,15.25,1.55,-2.23,0,*55
1503486350.18,3251,16.31,73882.8,15.27,1.63,-2.15,0,*56
1503486351.41,3252,16.31,73880.5,15.29,1.09,-2.43,0,*54
1503486352.64,3253,16.25,73880.0,15.29,2.13,-1.29,0,*52
1503486353.87,3254,16.31,73882.5,15.33,1.83,-1.47,0,*5C
1503486355.1,3255,16.31,73882.8,15.37,2.31,-0.93,0,*6B
1503486356.33,3256,16.25,73880.0,15.43,1.97,-1.13,0,*5D
1503486357.57,3257,16.31,73882.3,15.43,1.21,-2.03,0,*53
1503486358.8,3258,16.31,73882.0,15.43,0.87,-2.51,0,*66
1503486360.0,3259,16.25,73878.8,15.47,0.37,-2.99,0,*6C
1503486361.19,3260,16.31,73882.5,15.47,0.13,-3.19,0,*69
1503486362.39,3261,16.31,73882.8,15.47,0.29,-2.99,0,*68
1503486363.64,3262,16.31,73880.3,15.51,0.59,-2.75,0,*69
1503486364.84,3263,16.25,73878.8,15.49,0.47,-2.91,0,*64
1503486366.08,3264,16.25,73876.8,15.51,1.33,-2.19,0,*58
1503486367.34,3265,16.31,73880.5,15.55,1.71,-1.87,0,*5F
1503486368.58,3266,16.31,73882.0,15.59,0.55,-3.27,0,*6F
1503486369.78,3267,16.31,73882.5,15.61,1.05,-2.75,0,*57
1503486371.02,3268,16.31,73882.0,15.63,-0.23,-4.13,0,*44
1503486372.28,3269,16.31,73878.5,15.63,-0.89,-4.69,0,*48
1503486373.46,3270,16.31,73880.0,15.61,-0.77,-4.41,0,*49
1503486374.64,3271,16.31,73880.5,15.61,-0.41,-4.05,0,*4D
1503486375.85,3272,16.31,73880.3,15.63,-0.77,-4.33,0,*4C
1503486377.06,3273,16.25,73878.5,15.63,-0.29,-3.79,0,*4F
1503486378.28,3274,16.31,73884.5,15.63,-0.15,-3.55,0,*49
1503486379.51,3275,16.25,73878.8,15.69,-0.23,-3.59,0,*4B
1503486380.71,3276,16.25,73878.5,15.71,-0.69,-3.95,0,*4F
1503486381.95,3277,16.31,73882.0,15.71,-1.55,-4.85,0,*76
1503486383.16,3278,16.31,73878.3,15.71,-2.15,-5.39,0,*78
1503486384.41,3279,16.31,73880.8,15.71,-1.91,-4.93,0,*77
1503486385.62,3280,16.31,73882.0,15.71,-1.55,-4.45,0,*72
1503486386.85,3281,16.31,73878.5,15.71,-2.19,-4.93,0,*73
1503486388.09,3282,16.31,73880.3,15.71,-2.15,-4.85,0,*7B
1503486389.33,3283,16.31,73880.8,15.73,-1.99,-4.81,0,*7B
1503486390.59,3284,16.31,73878.0,15.75,-2.11,-4.85,0,*7D
1503486391.84,3285,16.31,73880.8,15.75,-0.89,-3.51,0,*41
1503486393.02,3286,16.31,73878.8,15.77,-1.29,-3.95,0,*73
1503486394.23,3287,16.31,73880.0,15.79,-1.79,-4.57,0,*70
1503486395.47,3288,16.31,73876.8,15.81,-1.91,-4.65,0,*7F
1503486396.71,3289,16.31,73878.0,15.83,-1.91,-4.69,0,*70
1503486397.95,3290,16.31,73880.0,15.85,-2.31,-5.07,0,*7E
1503486399.19,3291,16.31,73878.5,15.89,-1.47,-4.37,0,*73
1503486400.42,3292,16.31,73878.0,15.93,-2.51,-5.51,0,*7E
1503486401.66,3293,16.25,73876.3,15.95,-2.47,-5.61,0,*7D
1503486402.87,3294,16.31,73878.5,15.97,-2.95,-6.35,0,*75
1503486404.06,3295,16.31,73880.0,15.99,-3.07,-6.47,0,*75
1503486405.28,3296,16.31,73880.0,15.99,-3.47,-7.11,0,*70
1503486406.53,3297,16.31,73876.8,16.01,-3.55,-7.31,0,*72
1503486407.74,3298,16.31,73880.3,16.03,-3.27,-7.01,0,*79
1503486408.96,3299,16.31,73878.8,16.05,-3.15,-7.19,0,*76
1503486410.14,3300,16.31,73878.8,16.07,-2.79,-6.85,0,*7A
1503486411.41,3301,16.31,73880.0,16.13,-3.67,-7.99,0,*7C
1503486412.61,3302,16.31,73882.5,16.13,-4.45,-8.71,0,*71
1503486413.79,3303,16.31,73876.8,16.11,-4.99,-9.19,0,*7C
1503486415.01,3304,16.31,73878.3,16.13,-4.41,-8.41,0,*70
1503486416.25,3305,16.31,73880.0,16.13,-3.19,-7.31,0,*73
1503486417.47,3306,16.31,73880.5,16.17,-2.99,-6.89,0,*7F
1503486418.68,3307,16.31,73878.8,16.17,-3.23,-6.85,0,*72
1503486419.91,3308,16.31,73876.8,16.19,-2.83,-6.19,0,*7D
1503486421.17,3309,16.31,73876.5,16.21,-2.67,-5.77,0,*76
1503486422.44,3310,16.31,73880.0,16.21,-2.71,-5.65,0,*7A
1503486423.69,3311,16.31,73876.3,16.21,-2.95,-5.89,0,*73
1503486424.91,3312,16.31,73876.8,16.23,-2.67,-5.47,0,*7D
1503486426.13,3313,16.31,73880.0,16.27,-2.63,-5.39,0,*75
1503486427.38,3314,16.31,73876.5,16.29,-2.99,-5.65,0,*70
1503486428.61,3315,16.31,73880.5,16.29,-3.75,-6.35,0,*74
1503486429.83,3316,16.31,73882.0,16.29,-4.25,-6.77,0,*73
1503486431.05,3317,16.31,73876.3,16.29,-4.65,-7.11,0,*77
1503486432.27,3318,16.31,73882.0,16.27,-4.77,-6.73,0,*70
1503486433.47,3319,16.31,73876.8,16.27,-4.41,-6.35,0,*76
1503486434.69,3320,16.31,73882.8,16.27,-3.71,-5.39,0,*77
1503486435.91,3321,16.31,73882.3,16.27,-3.19,-4.77,0,*73
1503486437.14,3322,16.31,73876.3,16.29,-2.95,-4.41,0,*7E
1503486438.34,3323,16.31,73882.3,16.31,-3.15,-4.57,0,*78
1503486439.53,3324,16.31,73882.0,16.31,-3.19,-4.61,0,*76
1503486440.73,3325,16.31,73880.5,16.31,-2.83,-3.91,0,*7D
1503486441.92,3326,16.31,73882.0,16.31,-3.39,-4.45,0,*70
1503486443.17,3327,16.31,73878.0,16.31,-3.59,-4.73,0,*72
1503486444.37,3328,16.31,73882.3,16.31,-3.27,-4.49,0,*7D
1503486445.6,3329,16.31,73882.8,16.31,-3.95,-5.15,0,*7D
1503486446.82,3330,16.31,73874.8,16.29,-2.99,-4.13,0,*76
1503486448.09,3331,16.31,73882.3,16.29,-2.63,-3.59,0,*7B
1503486449.35,3332,16.31,73880.3,16.29,-2.71,-3.71,0,*71
1503486450.57,3333,16.31,73882.0,16.29,-3.23,-4.25,0,*70
1503486451.82,3334,16.31,73876.0,16.29,-2.95,-4.01,0,*7D
1503486453.01,3335,16.31,73878.5,16.23,-2.91,-3.91,0,*7C
1503486454.23,3336,16.31,73876.5,16.23,-3.11,-4.01,0,*78
1503486455.46,3337,16.31,73876.3,16.23,-3.75,-4.77,0,*7A
1503486456.71,3338,16.31,73878.0,16.21,-3.79,-4.81,0,*72
1503486457.91,3339,16.31,73880.8,16.19,-3.11,-4.09,0,*76
1503486459.16,3340,16.31,73878.0,16.17,-3.63,-4.25,0,*7D
1503486460.36,3341,16.31,73876.8,16.15,-3.75,-4.29,0,*75
1503486461.55,3342,16.31,73878.5,16.15,-2.91,-3.39,0,*7B
1503486462.75,3343,16.31,73878.5,16.15,-4.25,-4.17,0,*78
1503486463.94,3344,16.31,73878.0,16.11,-4.69,-4.45,0,*74
1503486465.13,3345,16.31,73878.5,16.11,-3.95,-3.39,0,*7D
1503486466.34,3346,16.31,73876.5,16.07,-3.71,-2.83,0,*73
1503486467.55,3347,16.31,73876.3,16.05,-3.91,-2.83,0,*7E
1503486468.74,3348,16.31,73878.3,16.07,-4.25,-2.99,0,*70
1503486469.92,3349,16.31,73878.5,16.07,-4.53,-3.35,0,*77
1503486471.13,3350,16.31,73880.3,16.05,-4.29,-2.87,0,*78
1503486472.35,3351,16.31,73878.5,16.05,-4.69,-3.39,0,*79
1503486473.56,3352,16.31,73878.0,16.05,-4.53,-3.27,0,*7C
1503486474.78,3353,16.31,73878.0,16.05,-4.69,-3.35,0,*77
1503486475.98,3354,16.31,73882.0,16.01,-4.99,-3.31,0,*7F
1503486477.21,3355,16.31,73876.3,16.01,-5.85,-4.09,0,*7E
1503486478.44,3356,16.31,73882.8,16.01,-5.07,-3.31,0,*7B
1503486479.67,3357,16.31,73876.3,15.99,-5.11,-3.43,0,*7A
1503486480.85,3358,16.31,73880.8,15.99,-5.55,-3.95,0,*7E
1503486482.08,3359,16.31,73876.5,15.97,-4.77,-3.03,0,*7F
1503486483.32,3360,16.31,73878.8,15.97,-4.61,-2.71,0,*76
1503486484.55,3361,16.31,73880.3,15.97,-5.69,-3.75,0,*7B
1503486485.77,3362,16.31,73880.0,15.97,-4.93,-3.03,0,*7D
1503486487.0,3363,16.31,73878.3,15.93,-5.19,-3.39,0,*72
1503486488.25,3364,16.31,73878.0,15.93,-5.19,-3.67,0,*7E
1503486489.45,3365,16.31,73876.3,15.93,-4.57,-3.15,0,*71
1503486490.64,3366,16.31,73880.8,15.91,-4.21,-2.99,0,*74
1503486491.82,3367,16.31,73878.5,15.91,-4.29,-3.27,0,*79
1503486493.04,3368,16.31,73876.0,15.91,-4.81,-3.67,0,*70
1503486494.23,3369,16.31,73882.3,15.91,-3.91,-2.91,0,*7F
1503486495.41,3370,16.31,73880.3,15.91,-4.05,-3.07,0,*73
1503486496.61,3371,16.31,73876.8,15.91,-3.91,-2.99,0,*7E
1503486497.83,3372,16.31,73880.8,15.89,-4.61,-3.71,0,*7B
1503486499.06,3373,16.31,73880.5,15.89,-4.89,-3.91,0,*72
1503486500.29,3374,16.31,73878.0,15.89,-5.11,-4.45,0,*7B
1503486501.55,3375,16.31,73878.5,15.85,-4.89,-4.01,0,*76
1503486502.77,3376,16.31,73880.0,15.85,-4.13,-3.51,0,*74
1503486503.96,3377,16.31,73878.5,15.83,-4.05,-3.79,0,*7E
1503486505.21,3378,16.31,73876.8,15.83,-5.23,-5.23,0,*7D
1503486506.44,3379,16.31,73876.8,15.81,-5.77,-5.97,0,*70
1503486507.67,3380,16.31,73876.0,15.79,-4.73,-4.61,0,*7C
1503486508.93,3381,16.31,73878.5,15.75,-3.63,-3.51,0,*73
1503486510.18,3382,16.31,73878.3,15.75,-3.59,-3.47,0,*7E
1503486511.41,3383,16.31,73880.3,15.75,-3.51,-3.19,0,*7C
1503486512.62,3384,16.31,73878.8,15.75,-2.83,-2.31,0,*7E
1503486513.87,3385,16.31,73876.0,15.75,-1.87,-1.09,0,*70
1503486515.1,3386,16.31,73882.8,15.75,-1.13,-0.57,0,*44